When you browse on this site, cookies collect data to enhance your experience and personalize the content and advertising you see.
Visit our Privacy Policy to learn more. By continuing to use the site, you agree to this use of cookies and data.

Hourly Weather Kristinehamn

Today, 5 July, Sunday

Time Temperature Precipitation Wind Pressure Humidity
00:00 +12°C° 0 mm 1 mps 743 mmHg 91%
01:00 +11°C° 0 mm 1 mps 743 mmHg 94%
02:00 +11°C° 0 mm 1 mps 742 mmHg 95%
03:00 +12°C° 0 mm 1 mps 742 mmHg 95%
04:00 +12°C° 0 mm 1 mps 742 mmHg 96%
05:00 +13°C° 0.1 mm 2 mps 741 mmHg 94%
06:00 +12°C° 0.1 mm 3 mps 741 mmHg 92%
07:00 +13°C° 0 mm 3 mps 740 mmHg 89%
08:00 +13°C° 1.1 mm 4 mps 739 mmHg 91%
09:00 +13°C° 1.1 mm 4 mps 738 mmHg 94%
10:00 +12°C° 1.1 mm 5 mps 737 mmHg 97%
11:00 +13°C° 4.3 mm 6 mps 736 mmHg 97%
12:00 +14°C° 4.3 mm 7 mps 735 mmHg 97%
13:00 +15°C° 4.3 mm 7 mps 733 mmHg 97%
14:00 +16°C° 0.7 mm 8 mps 733 mmHg 93%
15:00 +16°C° 0.7 mm 9 mps 732 mmHg 88%
16:00 +17°C° 0.7 mm 9 mps 732 mmHg 83%
17:00 +16°C° 0.1 mm 9 mps 732 mmHg 81%
18:00 +14°C° 0.1 mm 10 mps 732 mmHg 79%
19:00 +14°C° 0.1 mm 10 mps 732 mmHg 76%
20:00 +13°C° 0.1 mm 10 mps 732 mmHg 75%
21:00 +13°C° 0.1 mm 10 mps 732 mmHg 73%
22:00 +13°C° 0.1 mm 10 mps 733 mmHg 72%
23:00 +12°C° 0 mm 10 mps 733 mmHg 72%

Tomorrow, 6 July, Monday

Time Temperature Precipitation Wind Pressure Humidity
00:00 +12°C° 0 mm 10 mps 733 mmHg 72%
01:00 +11°C° 0 mm 9 mps 733 mmHg 72%
02:00 +11°C° 0.2 mm 9 mps 733 mmHg 74%
03:00 +11°C° 0.2 mm 9 mps 732 mmHg 76%
04:00 +11°C° 0.2 mm 9 mps 732 mmHg 77%
05:00 +11°C° 0.2 mm 9 mps 732 mmHg 76%
06:00 +11°C° 0.2 mm 10 mps 732 mmHg 74%
07:00 +12°C° 0.2 mm 10 mps 732 mmHg 73%
08:00 +12°C° 0.2 mm 10 mps 732 mmHg 72%
09:00 +13°C° 0.2 mm 10 mps 732 mmHg 71%
10:00 +13°C° 0.2 mm 9 mps 732 mmHg 71%
11:00 +13°C° 0.5 mm 9 mps 732 mmHg 73%
12:00 +13°C° 0.5 mm 9 mps 732 mmHg 75%
13:00 +13°C° 0.5 mm 9 mps 732 mmHg 77%
14:00 +13°C° 0.5 mm 8 mps 733 mmHg 77%
15:00 +13°C° 0.5 mm 8 mps 733 mmHg 77%
16:00 +14°C° 0.5 mm 7 mps 733 mmHg 78%
17:00 +14°C° 0.4 mm 6 mps 734 mmHg 82%
18:00 +13°C° 0.4 mm 4 mps 734 mmHg 86%
19:00 +13°C° 0.4 mm 3 mps 735 mmHg 90%
20:00 +12°C° 0.1 mm 3 mps 735 mmHg 90%
21:00 +11°C° 0.1 mm 4 mps 736 mmHg 90%
22:00 +11°C° 0.1 mm 4 mps 737 mmHg 90%
23:00 +10°C° 0 mm 4 mps 738 mmHg 90%

Day after tomorrow, 7 July, Tuesday

Time Temperature Precipitation Wind Pressure Humidity
00:00 +10°C° 0 mm 4 mps 739 mmHg 89%
01:00 +8°C° 0 mm 4 mps 740 mmHg 89%
02:00 +9°C° 0 mm 3 mps 740 mmHg 88%
03:00 +9°C° 0 mm 3 mps 741 mmHg 87%
04:00 +9°C° 0 mm 3 mps 742 mmHg 86%
05:00 +10°C° 0 mm 3 mps 742 mmHg 77%
06:00 +11°C° 0 mm 3 mps 743 mmHg 68%
07:00 +12°C° 0 mm 3 mps 743 mmHg 60%
08:00 +13°C° 0 mm 4 mps 743 mmHg 55%
09:00 +14°C° 0 mm 4 mps 744 mmHg 51%
10:00 +15°C° 0 mm 5 mps 744 mmHg 47%
11:00 +15°C° 0 mm 4 mps 744 mmHg 50%
12:00 +16°C° 0 mm 3 mps 744 mmHg 53%
13:00 +16°C° 0 mm 3 mps 744 mmHg 55%
14:00 +16°C° 0.1 mm 3 mps 744 mmHg 56%
15:00 +15°C° 0.1 mm 4 mps 744 mmHg 56%
16:00 +17°C° 0.1 mm 4 mps 744 mmHg 57%
17:00 +15°C° 0.2 mm 4 mps 744 mmHg 61%
18:00 +14°C° 0.2 mm 5 mps 744 mmHg 66%
19:00 +13°C° 0.2 mm 5 mps 744 mmHg 71%
20:00 +12°C° 0.4 mm 4 mps 744 mmHg 77%
21:00 +10°C° 0.4 mm 4 mps 744 mmHg 84%
22:00 +9°C° 0.4 mm 3 mps 744 mmHg 90%
23:00 +8°C° 0.5 mm 3 mps 744 mmHg 92%

8 July, Wednesday

Time Temperature Precipitation Wind Pressure Humidity
00:00 +8°C° 0.5 mm 3 mps 744 mmHg 93%
01:00 +8°C° 0.5 mm 3 mps 744 mmHg 94%
02:00 +8°C° 0.4 mm 3 mps 744 mmHg 95%
03:00 +8°C° 0.4 mm 2 mps 744 mmHg 95%
04:00 +8°C° 0.4 mm 2 mps 744 mmHg 95%
05:00 +9°C° 0.2 mm 3 mps 744 mmHg 93%
06:00 +10°C° 0.2 mm 3 mps 744 mmHg 90%
07:00 +11°C° 0.2 mm 3 mps 745 mmHg 88%
08:00 +12°C° 0.3 mm 4 mps 745 mmHg 82%
09:00 +13°C° 0.3 mm 4 mps 745 mmHg 77%
10:00 +14°C° 0.3 mm 4 mps 746 mmHg 71%
11:00 +16°C° 0.3 mm 3 mps 746 mmHg 65%
12:00 +16°C° 0.3 mm 3 mps 746 mmHg 59%
13:00 +17°C° 0.3 mm 2 mps 746 mmHg 53%
14:00 +18°C° 0.1 mm 2 mps 746 mmHg 50%
15:00 +18°C° 0.1 mm 3 mps 747 mmHg 47%
16:00 +18°C° 0.1 mm 3 mps 747 mmHg 44%
17:00 +17°C° 0.1 mm 3 mps 747 mmHg 50%
18:00 +17°C° 0.1 mm 2 mps 747 mmHg 56%
19:00 +16°C° 0.1 mm 2 mps 747 mmHg 62%
20:00 +14°C° 0 mm 2 mps 748 mmHg 67%
21:00 +12°C° 0 mm 1 mps 748 mmHg 72%
22:00 +11°C° 0 mm 1 mps 749 mmHg 76%
23:00 +10°C° 0.1 mm 1 mps 749 mmHg 77%

9 July, Thursday

Time Temperature Precipitation Wind Pressure Humidity
00:00 +9°C° 0.1 mm 2 mps 749 mmHg 79%
01:00 +9°C° 0.1 mm 2 mps 750 mmHg 80%
02:00 +8°C° 0 mm 2 mps 750 mmHg 81%
03:00 +9°C° 0 mm 1 mps 750 mmHg 82%
04:00 +9°C° 0 mm 1 mps 750 mmHg 82%
05:00 +11°C° 0 mm 1 mps 750 mmHg 75%
06:00 +13°C° 0 mm 1 mps 750 mmHg 68%
07:00 +15°C° 0 mm 1 mps 750 mmHg 60%
08:00 +16°C° 0.1 mm 1 mps 751 mmHg 56%
09:00 +19°C° 0.1 mm 1 mps 751 mmHg 52%
10:00 +20°C° 0.1 mm 1 mps 751 mmHg 48%
11:00 +20°C° 0 mm 2 mps 750 mmHg 45%
12:00 +20°C° 0 mm 2 mps 750 mmHg 43%
13:00 +20°C° 0 mm 2 mps 750 mmHg 41%
14:00 +20°C° 0 mm 2 mps 750 mmHg 42%
15:00 +20°C° 0 mm 2 mps 750 mmHg 42%
16:00 +20°C° 0 mm 2 mps 749 mmHg 43%
17:00 +19°C° 0 mm 2 mps 749 mmHg 48%
18:00 +19°C° 0 mm 2 mps 749 mmHg 53%
19:00 +18°C° 0 mm 2 mps 749 mmHg 58%
20:00 +16°C° 0 mm 3 mps 749 mmHg 68%
21:00 +14°C° 0 mm 4 mps 750 mmHg 77%
22:00 +12°C° 0 mm 5 mps 750 mmHg 86%
23:00 +12°C° 0 mm 4 mps 750 mmHg 87%

10 July, Friday

Time Temperature Precipitation Wind Pressure Humidity
00:00 +11°C° 0 mm 4 mps 750 mmHg 88%
01:00 +11°C° 0 mm 4 mps 750 mmHg 90%
02:00 +11°C° 0 mm 4 mps 750 mmHg 89%
03:00 +11°C° 0 mm 4 mps 749 mmHg 88%
04:00 +11°C° 0 mm 4 mps 749 mmHg 87%
05:00 +11°C° 0.3 mm 4 mps 749 mmHg 89%
06:00 +11°C° 0.3 mm 4 mps 749 mmHg 92%
07:00 +11°C° 0.3 mm 4 mps 748 mmHg 94%
08:00 +10°C° 0.5 mm 5 mps 748 mmHg 95%
09:00 +12°C° 0.5 mm 5 mps 748 mmHg 96%
10:00 +12°C° 0.5 mm 5 mps 748 mmHg 96%
11:00 +12°C° 1.2 mm 5 mps 747 mmHg 96%
12:00 +12°C° 1.2 mm 5 mps 747 mmHg 96%
13:00 +13°C° 1.2 mm 6 mps 746 mmHg 97%
14:00 +13°C° 1.5 mm 6 mps 746 mmHg 96%
15:00 +14°C° 1.5 mm 6 mps 745 mmHg 96%
16:00 +14°C° 1.5 mm 6 mps 745 mmHg 96%
17:00 +14°C° 1 mm 6 mps 745 mmHg 96%
18:00 +14°C° 1 mm 6 mps 744 mmHg 96%
19:00 +15°C° 1 mm 6 mps 744 mmHg 96%
20:00 +15°C° 0.6 mm 5 mps 744 mmHg 97%
21:00 +15°C° 0.6 mm 4 mps 744 mmHg 97%
22:00 +14°C° 0.6 mm 4 mps 744 mmHg 98%
23:00 +14°C° 0.6 mm 3 mps 744 mmHg 98%
Show more